Weather History for Hot Springs, VA

Change the Weather History Date:

Saturday, January 18, 2014

  Actual Average Record
Temperature  
Mean Temperature 12 °F -  
Max Temperature 17 °F 29 °F 50 °F (2006)
Min Temperature 6 °F 16 °F -7 °F (1997)
Degree Days  
Heating Degree Days 54    
Moisture  
Dew Point 7 °F    
Average Humidity 80    
Maximum Humidity 100    
Minimum Humidity 67    
Precipitation  
Precipitation 0.00 in - - ()
Sea Level Pressure  
Sea Level Pressure 29.77 in    
Wind  
Wind Speed 18 mph (West)    
Max Wind Speed 30 mph    
Max Gust Speed 44 mph    
Visibility 9 miles    
Events Snow    
Averages and records for this station are not official NWS values.
T = Trace of Precipitation, MM = Missing Value Source: NWS Daily Summary

Daily Weather History Graph

Daily Weather History Graph

Search for Another Location

Airport:

Trip Planner

Search our weather history database for the weather conditions in past years. The results will help you decide how hot, cold, wet, or windy it might be!

Date:

Astronomy

Jan. 18, 2014 Rise Set
Actual Time 7:32 AM EST 5:27 PM EST
Civil Twilight 7:04 AM EST 5:55 PM EST
Nautical Twilight 6:32 AM EST 6:27 PM EST
Astronomical Twilight 6:00 AM EST 6:59 PM EST
Moon 8:04 PM EST (1/18) 8:34 AM EST (1/18)
Length of Visible Light 10h 51m
Length of Day
9h 54m
Waning Gibbous, 94% of the Moon is Illuminated
Jan 18
Waning Gibbous
Jan 24
Last Quarter
Jan 30
New
Feb 6
First Quarter
Feb 14
Full

Hourly Weather History & Observations

Time (EST) Temp. Windchill Dew Point Humidity Pressure Visibility Wind Dir Wind Speed Gust Speed Precip Events Conditions
12:15 AM 17.6 °F 2.7 °F 17.6 °F 100% 29.77 in 10.0 mi WNW 16.1 mph - N/A   Overcast
12:35 AM 17.6 °F 3.2 °F 15.8 °F 93% 29.76 in 10.0 mi WNW 15.0 mph 20.7 mph N/A   Mostly Cloudy
12:55 AM 15.8 °F -0.2 °F 15.8 °F 100% 29.75 in 10.0 mi West 17.3 mph 24.2 mph N/A   Scattered Clouds
1:15 AM 15.8 °F -0.6 °F 14.0 °F 93% 29.74 in 10.0 mi West 18.4 mph - N/A   Clear
1:35 AM 15.8 °F -1.1 °F 14.0 °F 93% 29.75 in 10.0 mi West 19.6 mph 25.3 mph N/A   Scattered Clouds
1:55 AM 14.0 °F -3.9 °F 12.2 °F 93% 29.74 in 10.0 mi West 20.7 mph - N/A   Mostly Cloudy
2:15 AM 14.0 °F -3.4 °F 12.2 °F 93% 29.74 in 10.0 mi WNW 19.6 mph 27.6 mph N/A   Mostly Cloudy
2:35 AM 12.2 °F -4.8 °F 10.4 °F 92% 29.74 in 10.0 mi WNW 17.3 mph 25.3 mph N/A   Scattered Clouds
2:55 AM 12.2 °F -3.7 °F 10.4 °F 92% 29.74 in 10.0 mi WNW 15.0 mph 25.3 mph N/A   Scattered Clouds
3:15 AM 12.2 °F -5.8 °F 8.6 °F 85% 29.73 in 10.0 mi West 19.6 mph 25.3 mph N/A   Scattered Clouds
3:35 AM 10.4 °F -9.9 °F 6.8 °F 85% 29.73 in 7.0 mi WNW 24.2 mph 29.9 mph N/A   Clear
3:55 AM 10.4 °F -9.5 °F 6.8 °F 85% 29.72 in 7.0 mi WNW 23.0 mph 28.8 mph N/A   Clear
4:15 AM 10.4 °F -9.5 °F 5.0 °F 79% 29.71 in 4.0 mi WNW 23.0 mph 33.4 mph N/A Snow Light Snow
4:35 AM 8.6 °F -12.7 °F 5.0 °F 85% 29.70 in 3.0 mi WNW 25.3 mph 33.4 mph N/A Snow Light Snow
4:55 AM 8.6 °F -13.1 °F 3.2 °F 79% 29.71 in 4.0 mi WNW 26.5 mph 35.7 mph N/A Snow Light Snow
5:15 AM 8.6 °F -13.8 °F 3.2 °F 79% 29.70 in 4.0 mi WNW 28.8 mph 43.7 mph N/A Snow Light Snow
5:35 AM 8.6 °F -11.9 °F 3.2 °F 79% 29.71 in 3.0 mi WNW 23.0 mph 40.3 mph N/A Snow Light Snow
5:55 AM 8.6 °F -11.4 °F 3.2 °F 79% 29.70 in 5.0 mi WNW 21.9 mph 31.1 mph N/A   Overcast
6:15 AM 8.6 °F -10.5 °F 3.2 °F 79% 29.72 in 7.0 mi WNW 19.6 mph 31.1 mph N/A   Overcast
6:35 AM 8.6 °F -12.3 °F 3.2 °F 79% 29.73 in 7.0 mi West 24.2 mph 33.4 mph N/A   Overcast
6:55 AM 8.6 °F -12.3 °F 1.4 °F 73% 29.74 in 7.0 mi West 24.2 mph 35.7 mph N/A   Mostly Cloudy
7:15 AM 6.8 °F -16.2 °F 1.4 °F 79% 29.72 in 5.0 mi WNW 28.8 mph 38.0 mph N/A   Haze
7:35 AM 6.8 °F -15.5 °F 1.4 °F 79% 29.72 in 4.0 mi WNW 26.5 mph 40.3 mph N/A   Haze
7:55 AM 6.8 °F -16.6 °F 1.4 °F 79% 29.73 in 5.0 mi WNW 29.9 mph 35.7 mph N/A   Haze
8:15 AM 6.8 °F -13.4 °F 1.4 °F 79% 29.75 in 7.0 mi WNW 20.7 mph 35.7 mph N/A   Scattered Clouds
8:35 AM 6.8 °F -13.8 °F 1.4 °F 79% 29.75 in 10.0 mi WNW 21.9 mph 32.2 mph N/A   Mostly Cloudy
8:55 AM 6.8 °F -14.7 °F 1.4 °F 79% 29.75 in 10.0 mi WNW 24.2 mph 31.1 mph N/A   Mostly Cloudy
9:15 AM 6.8 °F -14.7 °F 1.4 °F 79% 29.77 in 10.0 mi West 24.2 mph 32.2 mph N/A   Scattered Clouds
9:35 AM 6.8 °F -13.8 °F 1.4 °F 79% 29.77 in 10.0 mi WNW 21.9 mph 29.9 mph N/A   Clear
9:55 AM 8.6 °F -10.5 °F 1.4 °F 73% 29.77 in 10.0 mi WNW 19.6 mph 26.5 mph N/A   Scattered Clouds
10:15 AM 8.6 °F -12.3 °F 1.4 °F 73% 29.79 in 10.0 mi WNW 24.2 mph 32.2 mph N/A   Scattered Clouds
10:35 AM 8.6 °F -11.4 °F 1.4 °F 73% 29.79 in 10.0 mi WNW 21.9 mph 29.9 mph N/A   Clear
10:55 AM 10.4 °F -9.1 °F 3.2 °F 73% 29.79 in 10.0 mi West 21.9 mph 28.8 mph N/A   Scattered Clouds
11:15 AM 10.4 °F -8.2 °F 3.2 °F 73% 29.79 in 10.0 mi West 19.6 mph 26.5 mph N/A   Mostly Cloudy
11:35 AM 12.2 °F -4.8 °F 3.2 °F 67% 29.79 in 10.0 mi WNW 17.3 mph 27.6 mph N/A   Scattered Clouds
11:55 AM 12.2 °F -4.3 °F 5.0 °F 73% 29.79 in 10.0 mi WNW 16.1 mph 21.9 mph N/A   Mostly Cloudy
12:15 PM 12.2 °F -7.1 °F 5.0 °F 73% 29.79 in 10.0 mi West 23.0 mph 28.8 mph N/A   Mostly Cloudy
12:35 PM 12.2 °F -6.7 °F 5.0 °F 73% 29.79 in 10.0 mi WNW 21.9 mph 31.1 mph N/A   Mostly Cloudy
12:55 PM 12.2 °F -3.1 °F 6.8 °F 79% 29.77 in 10.0 mi West 13.8 mph 24.2 mph N/A   Mostly Cloudy
1:15 PM 14.0 °F -2.0 °F 6.8 °F 73% 29.77 in 10.0 mi West 16.1 mph 25.3 mph N/A   Overcast
1:35 PM 14.0 °F -3.4 °F 6.8 °F 73% 29.77 in 10.0 mi West 19.6 mph 25.3 mph N/A   Mostly Cloudy
1:55 PM 14.0 °F -3.4 °F 6.8 °F 73% 29.78 in 10.0 mi West 19.6 mph 27.6 mph N/A   Mostly Cloudy
2:15 PM 14.0 °F -2.0 °F 6.8 °F 73% 29.78 in 10.0 mi West 16.1 mph 24.2 mph N/A   Mostly Cloudy
2:35 PM 12.2 °F -1.8 °F 6.8 °F 79% 29.79 in 10.0 mi WNW 11.5 mph 20.7 mph N/A   Mostly Cloudy
2:55 PM 14.0 °F -0.2 °F 6.8 °F 73% 29.79 in 10.0 mi West 12.7 mph 17.3 mph N/A   Mostly Cloudy
3:15 PM 14.0 °F -0.8 °F 6.8 °F 73% 29.79 in 10.0 mi WNW 13.8 mph 18.4 mph N/A   Scattered Clouds
3:35 PM 15.8 °F 2.7 °F 6.8 °F 68% 29.79 in 10.0 mi West 11.5 mph 18.4 mph N/A   Clear
3:55 PM 15.8 °F 2.1 °F 6.8 °F 68% 29.80 in 10.0 mi West 12.7 mph - N/A   Clear
4:15 PM 14.0 °F -0.8 °F 6.8 °F 73% 29.81 in 10.0 mi West 13.8 mph - N/A   Clear
4:35 PM 14.0 °F -0.8 °F 6.8 °F 73% 29.81 in 10.0 mi West 13.8 mph 18.4 mph N/A   Clear
4:55 PM 14.0 °F 1.2 °F 6.8 °F 73% 29.82 in 10.0 mi West 10.4 mph - N/A   Clear
5:15 PM 14.0 °F -0.2 °F 6.8 °F 73% 29.82 in 10.0 mi West 12.7 mph - N/A   Clear
5:35 PM 12.2 °F -2.5 °F 6.8 °F 79% 29.81 in 10.0 mi West 12.7 mph - N/A   Clear
5:55 PM 12.2 °F 0.7 °F 6.8 °F 79% 29.81 in 10.0 mi West 8.1 mph - N/A   Clear
6:15 PM 12.2 °F -1.0 °F 6.8 °F 79% 29.82 in 10.0 mi West 10.4 mph - N/A   Clear
6:35 PM 12.2 °F -1.8 °F 6.8 °F 79% 29.81 in 10.0 mi West 11.5 mph - N/A   Clear
6:55 PM 12.2 °F -1.8 °F 6.8 °F 79% 29.81 in 10.0 mi West 11.5 mph - N/A   Clear
7:15 PM 12.2 °F -0.2 °F 6.8 °F 79% 29.81 in 10.0 mi West 9.2 mph - N/A   Clear
7:35 PM 12.2 °F -2.5 °F 8.6 °F 85% 29.81 in 10.0 mi WSW 12.7 mph - N/A   Clear
7:55 PM 12.2 °F -3.1 °F 8.6 °F 85% 29.81 in 10.0 mi WSW 13.8 mph - N/A   Clear
8:15 PM 12.2 °F -3.1 °F 8.6 °F 85% 29.80 in 10.0 mi West 13.8 mph - N/A   Clear
8:35 PM 14.0 °F -1.4 °F 8.6 °F 79% 29.81 in 10.0 mi WSW 15.0 mph - N/A   Clear
8:55 PM 14.0 °F -0.8 °F 8.6 °F 79% 29.82 in 10.0 mi WSW 13.8 mph - N/A   Scattered Clouds
9:15 PM 15.8 °F 2.7 °F 10.4 °F 79% 29.80 in 10.0 mi West 11.5 mph - N/A   Mostly Cloudy
9:35 PM 15.8 °F 3.4 °F 10.4 °F 79% 29.80 in 10.0 mi WSW 10.4 mph - N/A   Overcast
9:55 PM 17.6 °F 4.3 °F 10.4 °F 73% 29.81 in 10.0 mi WSW 12.7 mph - N/A   Overcast
10:15 PM 17.6 °F 5.0 °F 10.4 °F 73% 29.82 in 10.0 mi West 11.5 mph - N/A   Overcast
10:35 PM 15.8 °F 2.1 °F 10.4 °F 79% 29.82 in 10.0 mi WSW 12.7 mph - N/A   Overcast
10:55 PM 15.8 °F 0.3 °F 10.4 °F 79% 29.80 in 7.0 mi West 16.1 mph 20.7 mph N/A   Overcast
11:15 PM 15.8 °F -0.6 °F 12.2 °F 86% 29.79 in 3.0 mi West 18.4 mph - N/A Snow Light Snow
11:35 PM 15.8 °F 0.3 °F 15.8 °F 100% 29.77 in 2.0 mi West 16.1 mph - N/A Snow Light Snow
11:55 PM 17.6 °F -0.6 °F 17.6 °F 100% 29.77 in 2.5 mi West 25.3 mph 29.9 mph N/A Snow Light Snow